Location: La Brionne
(46.1728°N, 1.7849°E)
Time: 17:12:15
(UTC+00:00)

USA 215 - Pass Details

Date: 27 October 2021
Orbit: 1099 x 1109 km, 123.0° (Epoch: 20 November)

Event Time Altitude Azimuth Distance (km) Brightness Sun altitude
Exits shadow 18:42:39 19° 44° (NE) 2,333 4.6 -20.8°
Maximum altitude 18:47:12 53° 336° (NNW) 1,335 3.8 -21.5°
Drops below altitude 10° 18:53:30 10° 261° (W) 2,962 6.6 -22.6°
Sets 18:56:02 0° 257° (WSW) 3,920 7.4 -23.1°
